Regional Weather Roundup
Issued by NWS

Home | Current Version | Previous Version | Text Only | Print | Product List | Glossary Off
Versions: 1 2 3 4 5 6 7 8 9 10 11 12 13 14 15 16 17 18 19 20 21 22 23 24 25 26 27 28 29 30 31 32 33 34 35 36 37 38 39 40 41 42 43 44 45 46 47 48 49 50

000
ASUS43 KDMX 260006
RWRIA

WEATHER ROUNDUP FOR IOWA
NATIONAL WEATHER SERVICE DES MOINES IA
700 PM CDT MON SEP 25 2017

NOTE: "FAIR" INDICATES FEW OR NO CLOUDS BELOW 12,000 FEET WITH NO
SIGNIFICANT WEATHER AND/OR OBSTRUCTIONS TO VISIBILITY.

* - THESE STATIONS ARE NOT NWS STATIONS...THUS NOT UNDER NWS
QUALITY CONTROL.  THEY ALSO DO NOT REPORT WEATHER SUCH
AS PRECIPITATION OR FOG.

IAZ001>003-012>014-020>022-031>034-043>046-260100-
   NORTHWEST IOWA

CITY           SKY/WX    TMP DP  RH WIND       PRES   REMARKS
CARROLL *      CLOUDY    68  68 100 N8        29.93S
CHEROKEE *     DRIZZLE   58  58 100 N5        29.97S
DENISON *      LGT RAIN  63  63 100 N9        29.95S
LE MARS *      CLOUDY    55  55 100 N5        29.99F FOG
ORANGE CITY *  DRIZZLE   57  57 100 N3        29.99S
SHELDON *      LGT RAIN  55  55 100 N6        29.98S
SIOUX CITY     LGT RAIN  57  57 100 N9        29.97F
6HR MIN TEMP:  57; 6HR MAX TEMP:  60; 6HR PCP:  0.04;

SPENCER        CLOUDY    58  56  93 NE7       29.99R
6HR MIN TEMP:  57; 6HR MAX TEMP:  60; 6HR PCP:  0.02;

STORM LAKE *   CLOUDY    59  57  94 N7        29.97R
$$

IAZ055>058-069>071-079>083-090>094-260100-
   SOUTHWEST IOWA

CITY           SKY/WX    TMP DP  RH WIND       PRES   REMARKS
ATLANTIC *     DRIZZLE   68  66  94 NE3       29.91F
AUDUBON *      LGT RAIN  66  64  94 CALM      29.93S
CLARINDA *     PTCLDY    68  66  94 NE5       29.92S
COUNCIL BLFS * CLOUDY    63  63 100 N8        29.92F
CRESTON *      RAIN      68  66  94 NW10      29.93F
HARLAN  *      CLOUDY    68  68 100 N8        29.95R
LAMONI         PTCLDY    70  68  93 NW10      29.92R
6HR MIN TEMP:  70; 6HR MAX TEMP:  88; 6HR PCP:  0.06;

RED OAK *      CLOUDY    70  68  94 N5        29.90R
SHENANDOAH *   CLOUDY    68  66  94 NW5       29.91R
$$

IAZ047>049-059>061-072>074-084-260100-
   CENTRAL IOWA

CITY           SKY/WX    TMP DP  RH WIND       PRES   REMARKS
AMES           LGT RAIN  67  67 100 NW6       29.94R
6HR MIN TEMP:  66; 6HR MAX TEMP:  85; 6HR PCP:  0.98;

ANKENY *       HVY RAIN  68  64  88 N12       29.93R VSB 3/4
BOONE *        LGT RAIN  66  64  94 SE5       29.93S
CHARITON *     PTCLDY    70  64  83 N9G16     29.91R
DES MOINES     TSTM      68  66  93 NW10      29.91R FOG
6HR MIN TEMP:  67; 6HR MAX TEMP:  88; 6HR PCP:  0.95;

GRINNELL*      MOCLDY    69  63  80 NW14      29.94R
KNOXVILLE *    MOCLDY    70  64  83 NW12      29.91R
MARSHALLTOWN   CLOUDY    68  66  93 NW10      29.93S
6HR MIN TEMP:  68; 6HR MAX TEMP:  89; 6HR PCP: TRACE;

NEWTON *       CLOUDY    70  64  83 N10       29.92S
PELLA *        PTCLDY    71  64  78 N7        29.92R
PERRY *        CLOUDY    67  66  99 E3        29.93S
$$

IAZ004>006-015-016-023>025-035-036-260100-
   NORTH CENTRAL IOWA

CITY           SKY/WX    TMP DP  RH WIND       PRES   REMARKS
ALGONA *       CLOUDY    61  61 100 NE5       29.98R
CLARION *      CLOUDY    64  64 100 W5        29.95R FOG
ESTHERVILLE    CLOUDY    56  56 100 N9        29.97S
6HR MIN TEMP:  56; 6HR MAX TEMP:  57; 6HR PCP:  0.01;

FORT DODGE *   RAIN      63  62  97 N6        29.94F
MASON CITY     CLOUDY    64  62  93 N7        29.96F
6HR MIN TEMP:  64; 6HR MAX TEMP:  80; 6HR PCP:  0.19;

FOREST CITY *  LGT RAIN  63  61  94 NE9       29.95F
WEBSTER CITY * LGT RAIN  64  64 100 E5        29.92F
IOWA FALLS *   RAIN      65  64  97 W7        29.94R
$$

IAZ007>011-017>019-026>030-037>042-050>054-066-260100-
   NORTHEAST IOWA

CITY           SKY/WX    TMP DP  RH WIND       PRES   REMARKS
CEDAR RAPIDS   PTCLDY    82  64  54 S5        29.88R HX  83
6HR MIN TEMP:  82; 6HR MAX TEMP:  92;

CHARLES CITY * HVY RAIN  66  66 100 NW10G17   29.96F
CLINTON *      CLOUDY   N/A N/A N/A CALM      29.91R
DECORAH *      DRIZZLE   66  66 100 CALM      29.93S
DUBUQUE        PTCLDY    72  66  81 NE12      29.92R
6HR MIN TEMP:  72; 6HR MAX TEMP:  87;

MONTICELLO *   CLOUDY    82  63  51 SE6       29.88S HX  83
OELWEIN *      CLOUDY    70  68  94 NW10G20   29.95R
WATERLOO       TSTM      66  65  96 N8        29.93R FOG
6HR MIN TEMP:  66; 6HR MAX TEMP:  89; 6HR PCP:  0.16;

$$

IAZ064-065-067-068-078-260100-
   EAST CENTRAL IOWA

CITY           SKY/WX    TMP DP  RH WIND       PRES   REMARKS
DAVENPORT      MOCLDY    77  64  64 S8        29.93R
6HR MIN TEMP:  77; 6HR MAX TEMP:  89; 6HR PCP: TRACE;

IOWA CITY      CLOUDY    84  62  47 S10       29.90R HX  85
6HR MIN TEMP:  84; 6HR MAX TEMP:  93;

MUSCATINE *    PTCLDY    82  64  54 S9        29.90R HX  84
QUAD CITIES    LGT RAIN  77  65  66 CALM      29.89R
6HR MIN TEMP:  76; 6HR MAX TEMP:  91; 6HR PCP:  0.02;

$$

IAZ062-063-075>077-085>089-095>099-260100-
   SOUTHEAST IOWA

CITY           SKY/WX    TMP DP  RH WIND       PRES   REMARKS
BURLINGTON     CLOUDY    78  65  63 CALM      29.90S HX  80
6HR MIN TEMP:  78; 6HR MAX TEMP:  90; 6HR PCP: TRACE;

FAIRFIELD *    CLOUDY    82  64  54 S6        29.89R HX  84
FORT MADISON * PTCLDY    72  70  94 CALM      29.91S
KEOKUK *       CLEAR     82  63  51 SW5       29.89S HX  83
OSKALOOSA *      N/A     81  63  55 CALM      29.89R HX  82
OTTUMWA        CLOUDY    81  65  58 S5        29.89R HX  83
6HR MIN TEMP:  81; 6HR MAX TEMP:  88;

WASHINGTON *   MOCLDY    81  66  61 S8        29.91R HX  83
$$

ABBREVIATIONS USED IN REMARKS
   TC - TEMPERATURES IN CELSIUS
  WCI - WIND CHILL INDEX
   HX - HEAT INDEX
  VSB - VISIBILITY
$$





USA.gov is the U.S. government's official web portal to all federal, state and local government web resources and services.